Regional Weather Roundup
Issued by NWS

Home | Current Version | Previous Version | Text Only | Print | Product List | Glossary On
Versions: 1 2 3 4 5 6 7 8 9 10 11 12 13 14 15 16 17 18 19 20 21 22 23 24 25 26 27
000
ASUS45 KBOU 250407
RWRCO

WEATHER ROUNDUP FOR COLORADO
NATIONAL WEATHER SERVICE DENVER/BOULDER CO
1000 PM MDT FRI OCT 24 2014

NOTE: "FAIR" INDICATES FEW OR NO CLOUDS BELOW 12000 FEET WITH NO
SIGNIFICANT WEATHER AND/OR OBSTRUCTIONS TO VISIBILITY.

COZ001>005-013-030-031-250500-
...NORTHWEST COLORADO...

CITY           SKY/WX    TMP DP  RH WIND       PRES   REMARKS
CRAIG          CLEAR     40  29  64 VRB6      30.30R
HAYDEN         CLEAR     50  27  40 E8        30.32R
MEEKER         CLEAR     44  30  57 NE5       30.32R
MOUNT WERNER   NOT AVBL
STEAMBOAT SPGS CLEAR     45  28  51 SE6       30.34R
WALDEN         CLEAR     50  21  32 S9        30.39R
$$

COZ006>008-011-250500-
...WEST CENTRAL VALLEYS...

CITY           SKY/WX    TMP DP  RH WIND       PRES   REMARKS
GRAND JUNCTION CLEAR     53  35  50 SE7       30.24R
MONTROSE       CLEAR     49  32  52 SE9       30.32R
EAGLE          CLEAR     45  30  57 SE3       30.39R
RIFLE          CLEAR     49  32  52 CALM      30.30R
DELTA          CLEAR     56  33  41 E3        30.28R
NUCLA          CLEAR     54  27  35 E13       30.34R HAZE
$$

COZ017>023-064>068-250500-
...SOUTHWEST COLORADO...

CITY           SKY/WX    TMP DP  RH WIND       PRES   REMARKS
DURANGO        CLEAR     48  34  58 CALM      30.36R
CORTEZ         CLEAR     44  29  55 NE6       30.32R
PAGOSA SPRINGS CLEAR     45  32  60 CALM      30.43S
TELLURIDE      CLEAR     47  27  47 SE7       30.52R
WOLF CREEK PAS CLEAR     39  27  60 SW3         N/A
$$

COZ009-010-012-014-032>034-037-058>063-250500-
...CENTRAL COLORADO...

CITY           SKY/WX    TMP DP  RH WIND       PRES   REMARKS
ASPEN          CLEAR     42  27  55 S8        30.42R
BUENA VISTA    CLEAR     42  20  40 NW8       30.43R
COPPER MTN     CLEAR     45  16  31 S12       30.66R
BERTHOUD PASS  FAIR      36  34  93 W12G20    30.67S
COTTONWOOD PAS CLEAR     52   5  15 W6        30.54R
GUNNISON       PTCLDY    43  19  39 N3        30.47R
KREMMLING      CLEAR     39  21  48 CALM        N/A
LEADVILLE      CLEAR     32  20  61 NE6       30.53R WCI  26
MONARCH PASS   CLEAR     41  14  33 W22       30.75R
SALIDA         CLEAR     54  21  27 W8        30.47R
SUNLIGHT       CLEAR     45  23  42 CALM      30.60R
WILKERSON PASS NOT AVBL
$$

COZ069>075-250500-
...SAN LUIS VALLEY/SANGRE DE CRISTO MOUNTAINS...

CITY           SKY/WX    TMP DP  RH WIND       PRES   REMARKS
ALAMOSA        PTCLDY    38  27  64 SW5       30.39R
LA VETA PASS   CLEAR     48  14  25 S13       30.56R
SAGUACHE       NOT AVBL
$$

COZ035-036-038>040-250500-
...NORTHERN COLORADO FRONT RANGE...

CITY           SKY/WX    TMP DP  RH WIND       PRES   REMARKS
DENVER INTL AP CLEAR     49  30  48 SE3       30.21R
DMNS CITY PARK   N/A     56  34  44 S2        30.21R
AURORA         CLEAR     58  26  28 S12       30.23R
FRONT RANGE AP CLEAR     55  32  41 S15       30.22R
ERIE MUNI ARPT CLEAR     52  27  38 CALM      30.20R
BOULDER MUN AP CLEAR     64  19  17 SW9       30.20S
CENTENNIAL     CLEAR     53  28  38 S5        30.24R
BROOMFIELD     CLEAR     70  19  14 CALM      30.23R
FORT COLLINS   CLEAR     57  30  35 NW3       30.20R
LONGMONT       CLEAR     56  27  32 SW5       30.21R
$$

COZ041-046-047-076>085-087-088-250500-
...PIKES PEAK/PALMER DIVIDE AND SOUTHERN FOOTHILLS...

CITY           SKY/WX    TMP DP  RH WIND       PRES   REMARKS
COLO. SPRINGS  CLEAR     50  27  40 N7        30.29R
A. F. ACADEMY  CLEAR     44  26  48 N8        30.30R
ELLICOTT       NOT AVBL
FALCON         CLEAR     51  24  35 W9        30.32S
FORT CARSON    CLEAR     55  26  33 NW7       30.25R
LIMON          CLEAR     44  30  57 NW5       30.22R
MONUMENT HILL  CLEAR     45  27  49 S8        30.31S
TRINIDAD       CLEAR     57  31  37 W12       30.24R
$$

COZ042>045-048>051-090-091-250500-
...NORTHEAST COLORADO...

CITY           SKY/WX    TMP DP  RH WIND       PRES   REMARKS
GREELEY ARPT   CLEAR     46  28  49 N7        30.18R
AKRON          CLEAR     60  24  25 S8        30.16R
BURLINGTON     CLEAR     52  30  43 W6        30.15R
WRAY           CLEAR     63  28  26 CALM      30.11R
STERLING       CLEAR     50  34  53 N5        30.12R
HOLYOKE        CLEAR     46  36  66 SW3       30.12R
FORT MORGAN    CLEAR     57  24  27 W3        30.16R
$$

COZ086-089-092>099-250500-
...SOUTHEAST COLORADO...

CITY           SKY/WX    TMP DP  RH WIND       PRES   REMARKS
PUEBLO         CLEAR     55  26  32 N9        30.17R
LA JUNTA       CLEAR     60  35  39 NE7       30.13R
LAMAR          CLEAR     57  35  43 CALM      30.10R
SPRINGFIELD      N/A     53  38  56 SW8       30.16R
$$



USA.gov is the U.S. government's official web portal to all federal, state and local government web resources and services.